contact:dominique.lefevre@mio.osupytheas.fr, maurice.libes@osupytheas.fr, didier.mallarino@osupytheas.fr
Project:EMSO http://www.emso-fr.org/EMSO-France
Depth: 2436.0 m
Title:EMSO Ligure Ouest : Data MII capteur AQUADOPP
Date,Latitude,Longitude,X_East,Y_North,Z_Up,Amplitude_X,Amplitude_Y,Amplitude_Z,Batterie,SoundSpeed,Heading,Pitch,Roll,Pressure,TIS,Speed,Direction
, degrees North, degrees East, m.s-1, m.s-1,m.s-1, 1, 1, 1, Volt, m.s-1, degree, degree, degree, dbar, degree_C, m.s-1, degree
2021-09-03T00:04:02,42.805,6.029,0.065,-0.011,0.0,101.0,102.0,100.0,13.3,1505.2,328.6,-0.7,1.8,2470.688,13.28,0.065,99.6
2021-09-03T00:07:02,42.805,6.029,0.056,-0.017,0.0,101.0,101.0,100.0,13.4,1505.2,331.3,-0.8,1.8,2470.694,13.28,0.058,106.9
2021-09-03T00:10:03,42.805,6.029,0.082,-0.029,0.012,101.0,101.0,100.0,13.4,1505.2,325.6,-0.8,1.8,2470.698,13.28,0.086,109.5
2021-09-03T00:13:03,42.805,6.029,0.042,-0.035,-0.03,102.0,102.0,101.0,13.4,1505.2,329.8,-0.8,1.8,2470.63,13.28,0.054,129.8
2021-09-03T00:16:03,42.805,6.029,0.055,-0.033,0.006,102.0,102.0,100.0,13.4,1505.2,326.7,-0.7,1.8,2470.652,13.28,0.064,121.0
2021-09-03T00:19:03,42.805,6.029,0.051,-0.01,-0.009,101.0,102.0,101.0,13.4,1505.2,329.6,-0.7,1.8,2470.675,13.28,0.051,101.1
2021-09-03T00:22:03,42.805,6.029,0.055,-0.02,-0.004,101.0,102.0,100.0,13.4,1505.2,328.5,-0.8,1.8,2470.666,13.28,0.058,110.0
2021-09-03T00:25:03,42.805,6.029,0.051,-0.009,0.001,102.0,101.0,101.0,13.3,1505.2,326.8,-0.7,1.8,2470.637,13.28,0.051,100.0
2021-09-03T00:28:03,42.805,6.029,0.054,-0.009,0.03,102.0,101.0,100.0,13.4,1505.2,326.5,-0.8,1.8,2470.662,13.28,0.054,99.5
2021-09-03T00:31:03,42.805,6.029,0.049,0.001,0.026,101.0,100.0,101.0,13.4,1505.2,330.9,-0.7,1.8,2470.665,13.28,0.049,88.8
2021-09-03T00:34:03,42.805,6.029,0.027,0.0,-0.013,101.0,101.0,101.0,13.4,1505.2,329.2,-0.7,1.8,2470.674,13.28,0.026,90.0
2021-09-03T00:37:03,42.805,6.029,0.044,-0.011,0.006,102.0,102.0,100.0,13.4,1505.2,326.6,-0.7,1.8,2470.672,13.28,0.045,104.0
2021-09-03T00:40:03,42.805,6.029,0.072,-0.021,0.049,103.0,101.0,99.0,13.3,1505.2,326.0,-0.8,1.8,2470.64,13.28,0.074,106.3
2021-09-03T00:43:03,42.805,6.029,0.059,-0.02,0.008,101.0,101.0,102.0,13.3,1505.2,329.4,-0.8,1.8,2470.673,13.28,0.062,108.7
2021-09-03T00:46:03,42.805,6.029,0.082,-0.034,-0.027,102.0,102.0,100.0,13.4,1505.2,328.4,-0.8,1.8,2470.663,13.28,0.088,112.5
2021-09-03T00:49:03,42.805,6.029,0.047,-0.029,-0.019,101.0,103.0,101.0,13.4,1505.2,328.9,-0.8,1.8,2470.658,13.28,0.055,121.7
2021-09-03T00:52:03,42.805,6.029,0.059,-0.003,-0.007,101.0,103.0,100.0,13.3,1505.2,327.7,-0.7,1.8,2470.68,13.28,0.059,92.9
2021-09-03T00:55:03,42.805,6.029,0.048,-0.031,0.013,102.0,103.0,101.0,13.4,1505.2,326.7,-0.7,1.8,2470.672,13.28,0.057,122.9
2021-09-03T00:58:03,42.805,6.029,0.074,-0.004,0.022,101.0,104.0,100.0,13.4,1505.2,325.8,-0.8,1.8,2470.673,13.28,0.074,93.1
2021-09-03T01:04:03,42.805,6.029,0.102,-0.017,0.006,104.0,104.0,103.0,13.3,1505.2,327.6,-0.7,1.8,2470.667,13.28,0.103,99.5
2021-09-03T01:07:03,42.805,6.029,0.061,-0.022,0.01,102.0,103.0,102.0,13.4,1505.2,325.4,-0.8,1.8,2470.654,13.28,0.064,109.8
2021-09-03T01:10:03,42.805,6.029,0.057,-0.015,0.01,101.0,102.0,101.0,13.3,1505.2,327.1,-0.8,1.8,2470.67,13.28,0.058,104.7
2021-09-03T01:13:03,42.805,6.029,0.055,-0.042,-0.019,102.0,103.0,100.0,13.4,1505.2,329.4,-0.8,1.8,2470.656,13.28,0.069,127.4
2021-09-03T01:16:03,42.805,6.029,0.06,-0.021,0.034,102.0,101.0,101.0,13.4,1505.2,329.4,-0.8,1.8,2470.687,13.28,0.063,109.3
2021-09-03T01:19:03,42.805,6.029,0.051,-0.015,-0.014,102.0,101.0,100.0,13.4,1505.2,326.0,-0.7,1.8,2470.673,13.28,0.053,106.4
2021-09-03T01:22:03,42.805,6.029,0.035,-0.029,0.013,101.0,102.0,100.0,13.4,1505.2,330.4,-0.7,1.8,2470.691,13.28,0.045,129.6
2021-09-03T01:25:03,42.805,6.029,0.053,-0.03,0.017,102.0,102.0,101.0,13.4,1505.2,325.7,-0.8,1.8,2470.664,13.28,0.06,119.5
2021-09-03T01:28:03,42.805,6.029,0.022,-0.03,-0.018,102.0,104.0,100.0,13.3,1505.2,328.6,-0.8,1.8,2470.668,13.28,0.037,143.7
2021-09-03T01:31:03,42.805,6.029,0.051,-0.011,0.001,102.0,102.0,101.0,13.4,1505.2,327.2,-0.7,1.8,2470.649,13.28,0.052,102.2
2021-09-03T01:34:03,42.805,6.029,0.053,0.007,0.025,101.0,104.0,100.0,13.3,1505.2,327.8,-0.8,1.8,2470.702,13.28,0.053,82.5
2021-09-03T01:37:03,42.805,6.029,0.035,-0.013,0.017,100.0,102.0,102.0,13.4,1505.2,328.7,-0.8,1.8,2470.634,13.28,0.037,110.4
2021-09-03T01:40:03,42.805,6.029,0.058,-0.022,-0.01,101.0,102.0,101.0,13.4,1505.2,327.7,-0.8,1.8,2470.661,13.28,0.062,110.8
2021-09-03T01:43:03,42.805,6.029,0.06,-0.021,-0.009,102.0,102.0,100.0,13.3,1505.2,329.3,-0.7,1.8,2470.637,13.28,0.063,109.3
2021-09-03T01:46:03,42.805,6.029,0.062,-0.032,0.006,101.0,102.0,101.0,13.4,1505.2,325.8,-0.8,1.8,2470.698,13.28,0.069,117.3
2021-09-03T01:49:03,42.805,6.029,0.074,-0.038,-0.006,102.0,104.0,100.0,13.3,1505.2,330.9,-0.8,1.8,2470.699,13.28,0.083,117.2
2021-09-03T01:52:02,42.805,6.029,0.069,-0.021,0.024,103.0,101.0,101.0,13.4,1505.2,328.1,-0.7,1.8,2470.669,13.28,0.072,106.9
2021-09-03T01:55:03,42.805,6.029,0.068,-0.032,-0.001,101.0,101.0,102.0,13.4,1505.2,326.3,-0.7,1.8,2470.647,13.28,0.075,115.2
2021-09-03T01:58:02,42.805,6.029,0.078,-0.04,0.044,102.0,101.0,101.0,13.4,1505.2,325.4,-0.8,1.8,2470.665,13.28,0.087,117.1
2021-09-03T02:04:03,42.805,6.029,0.06,-0.021,-0.004,101.0,103.0,101.0,13.4,1505.2,329.6,-0.8,1.8,2470.697,13.28,0.063,109.3
2021-09-03T02:07:03,42.805,6.029,0.052,-0.024,0.035,102.0,103.0,99.0,13.3,1505.2,327.7,-0.7,1.8,2470.685,13.28,0.057,114.8
2021-09-03T02:10:03,42.805,6.029,0.057,-0.014,-0.003,101.0,104.0,101.0,13.4,1505.2,328.6,-0.8,1.8,2470.728,13.28,0.058,103.8
2021-09-03T02:13:03,42.805,6.029,0.069,-0.027,-0.007,103.0,102.0,101.0,13.4,1505.2,327.8,-0.7,1.8,2470.683,13.28,0.074,111.4
2021-09-03T02:16:03,42.805,6.029,0.065,-0.036,-0.005,102.0,100.0,102.0,13.3,1505.2,328.6,-0.8,1.8,2470.672,13.28,0.074,119.0
2021-09-03T02:19:03,42.805,6.029,0.067,-0.013,-0.005,103.0,102.0,102.0,13.4,1505.2,330.1,-0.8,1.8,2470.642,13.28,0.068,101.0
2021-09-03T02:22:03,42.805,6.029,0.037,-0.014,0.001,100.0,104.0,101.0,13.3,1505.2,327.6,-0.7,1.8,2470.665,13.28,0.039,110.7
2021-09-03T02:25:03,42.805,6.029,0.04,0.0,0.012,101.0,102.0,102.0,13.3,1505.2,325.8,-0.8,1.8,2470.664,13.28,0.04,90.0
2021-09-03T02:28:03,42.805,6.029,0.049,-0.009,0.002,102.0,102.0,101.0,13.3,1505.2,329.7,-0.8,1.9,2470.697,13.28,0.049,100.4
2021-09-03T02:31:03,42.805,6.029,0.07,-0.026,0.008,102.0,102.0,102.0,13.4,1505.2,327.6,-0.7,1.8,2470.677,13.28,0.074,110.4
2021-09-03T02:34:03,42.805,6.029,0.059,-0.035,-0.019,102.0,101.0,101.0,13.3,1505.2,329.2,-0.7,1.8,2470.68,13.28,0.068,120.7
2021-09-03T02:37:03,42.805,6.029,0.056,-0.02,-0.016,102.0,103.0,100.0,13.4,1505.2,327.3,-0.7,1.8,2470.678,13.28,0.059,109.6
2021-09-03T02:40:03,42.805,6.029,0.036,-0.032,-0.013,103.0,102.0,101.0,13.4,1505.2,328.7,-0.8,1.8,2470.704,13.28,0.048,131.6
2021-09-03T02:43:03,42.805,6.029,0.044,-0.012,0.023,100.0,102.0,101.0,13.4,1505.2,329.5,-0.8,1.8,2470.687,13.28,0.045,105.3
2021-09-03T02:46:03,42.805,6.029,0.06,-0.026,0.03,102.0,102.0,100.0,13.4,1505.2,329.2,-0.8,1.8,2470.683,13.28,0.065,113.4
2021-09-03T02:49:03,42.805,6.029,0.049,-0.03,-0.035,102.0,101.0,101.0,13.4,1505.2,325.4,-0.8,1.8,2470.673,13.28,0.057,121.5
2021-09-03T02:52:03,42.805,6.029,0.083,-0.032,-0.016,100.0,104.0,102.0,13.3,1505.2,329.7,-0.8,1.9,2470.689,13.28,0.088,111.1
2021-09-03T02:55:03,42.805,6.029,0.064,-0.025,0.012,103.0,102.0,101.0,13.3,1505.2,329.7,-0.7,1.8,2470.695,13.28,0.068,111.3
2021-09-03T02:58:03,42.805,6.029,0.058,-0.038,-0.015,102.0,102.0,101.0,13.4,1505.2,331.1,-0.7,1.8,2470.683,13.28,0.069,123.2
2021-09-03T03:04:03,42.805,6.029,0.066,-0.016,0.031,102.0,102.0,100.0,13.3,1505.2,328.9,-0.7,1.8,2470.726,13.28,0.067,103.6
2021-09-03T03:07:03,42.805,6.029,0.04,-0.03,0.002,101.0,102.0,101.0,13.4,1505.2,327.7,-0.7,1.8,2470.706,13.28,0.05,126.9
2021-09-03T03:10:03,42.805,6.029,0.013,-0.016,-0.012,102.0,102.0,101.0,13.4,1505.2,328.4,-0.7,1.8,2470.738,13.28,0.02,140.9
2021-09-03T03:13:03,42.805,6.029,0.055,0.003,-0.009,102.0,103.0,101.0,13.3,1505.2,331.8,-0.8,1.8,2470.726,13.28,0.055,86.9
2021-09-03T03:16:03,42.805,6.029,0.07,-0.023,0.006,101.0,103.0,101.0,13.4,1505.2,327.8,-0.8,1.8,2470.727,13.28,0.073,108.2
2021-09-03T03:19:03,42.805,6.029,0.045,-0.022,0.005,103.0,102.0,100.0,13.3,1505.2,327.9,-0.8,1.8,2470.691,13.28,0.05,116.1
2021-09-03T03:22:03,42.805,6.029,0.058,-0.021,-0.014,101.0,102.0,101.0,13.4,1505.2,328.1,-0.8,1.8,2470.722,13.28,0.061,109.9
2021-09-03T03:25:03,42.805,6.029,0.072,-0.008,0.015,102.0,102.0,101.0,13.3,1505.2,329.5,-0.7,1.8,2470.65,13.28,0.072,96.3
2021-09-03T03:28:03,42.805,6.029,0.065,-0.018,0.018,102.0,102.0,101.0,13.3,1505.2,329.4,-0.7,1.8,2470.729,13.28,0.067,105.5
2021-09-03T03:31:03,42.805,6.029,0.059,-0.018,-0.012,102.0,102.0,100.0,13.4,1505.2,330.0,-0.8,1.8,2470.731,13.28,0.061,107.0
2021-09-03T03:34:03,42.805,6.029,0.068,-0.016,-0.013,101.0,101.0,102.0,13.4,1505.2,328.8,-0.8,1.9,2470.727,13.28,0.069,103.2
2021-09-03T03:37:03,42.805,6.029,0.074,-0.026,-0.001,102.0,102.0,100.0,13.4,1505.2,328.3,-0.7,1.9,2470.687,13.28,0.078,109.4
2021-09-03T03:40:03,42.805,6.029,0.033,-0.012,-0.011,102.0,101.0,101.0,13.4,1505.2,329.5,-0.8,1.8,2470.671,13.28,0.035,110.0
2021-09-03T03:43:03,42.805,6.029,0.064,-0.027,-0.011,104.0,101.0,100.0,13.4,1505.2,329.4,-0.7,1.8,2470.713,13.28,0.069,112.9
2021-09-03T03:46:03,42.805,6.029,0.054,-0.014,-0.003,102.0,101.0,101.0,13.3,1505.2,328.2,-0.7,1.8,2470.686,13.28,0.055,104.5
2021-09-03T03:49:03,42.805,6.029,0.054,-0.039,-0.014,102.0,103.0,100.0,13.4,1505.2,328.2,-0.7,1.8,2470.707,13.28,0.066,125.8
2021-09-03T03:52:03,42.805,6.029,0.049,-0.014,0.014,101.0,102.0,101.0,13.4,1505.2,328.8,-0.8,1.8,2470.75,13.28,0.05,105.9
2021-09-03T03:55:03,42.805,6.029,0.043,-0.004,0.004,103.0,102.0,99.0,13.4,1505.2,325.6,-0.8,1.8,2470.697,13.28,0.043,95.3
2021-09-03T03:58:03,42.805,6.029,0.031,-0.021,0.014,102.0,102.0,101.0,13.4,1505.2,328.7,-0.7,1.8,2470.693,13.28,0.037,124.1
2021-09-03T04:04:03,42.805,6.029,0.055,-0.025,0.005,102.0,102.0,100.0,13.3,1505.2,329.5,-0.7,1.8,2470.741,13.28,0.06,114.4
2021-09-03T04:07:03,42.805,6.029,0.057,-0.021,0.013,101.0,102.0,101.0,13.3,1505.2,325.3,-0.7,1.8,2470.731,13.28,0.06,110.2
2021-09-03T04:10:03,42.805,6.029,0.044,-0.021,0.008,102.0,102.0,100.0,13.4,1505.2,325.8,-0.8,1.8,2470.744,13.28,0.048,115.5
2021-09-03T04:13:03,42.805,6.029,0.091,-0.013,0.01,102.0,103.0,101.0,13.3,1505.2,325.6,-0.7,1.8,2470.717,13.28,0.091,98.1
2021-09-03T04:16:03,42.805,6.029,0.043,-0.026,-0.012,102.0,103.0,100.0,13.3,1505.2,329.6,-0.7,1.8,2470.735,13.28,0.05,121.2
2021-09-03T04:19:03,42.805,6.029,0.07,-0.026,-0.018,101.0,104.0,101.0,13.4,1505.2,328.8,-0.8,1.8,2470.749,13.28,0.074,110.4
2021-09-03T04:22:03,42.805,6.029,0.043,-0.007,0.017,100.0,103.0,100.0,13.3,1505.2,327.2,-0.7,1.8,2470.746,13.28,0.043,99.2
2021-09-03T04:25:03,42.805,6.029,0.067,-0.033,-0.005,102.0,102.0,100.0,13.3,1505.2,329.1,-0.8,1.8,2470.721,13.28,0.074,116.2
2021-09-03T04:28:03,42.805,6.029,0.048,-0.015,0.007,101.0,102.0,101.0,13.3,1505.2,327.3,-0.7,1.8,2470.705,13.28,0.05,107.4
2021-09-03T04:31:03,42.805,6.029,0.04,-0.023,-0.01,102.0,101.0,102.0,13.3,1505.2,325.2,-0.8,1.8,2470.698,13.28,0.046,119.9
2021-09-03T04:34:03,42.805,6.029,0.045,-0.036,-0.022,101.0,104.0,100.0,13.3,1505.2,326.1,-0.8,1.8,2470.721,13.28,0.057,128.7
2021-09-03T04:37:03,42.805,6.029,0.054,-0.014,0.0,101.0,103.0,101.0,13.4,1505.2,326.5,-0.8,1.8,2470.682,13.28,0.055,104.5
2021-09-03T04:40:03,42.805,6.029,0.049,-0.009,0.02,102.0,102.0,101.0,13.3,1505.2,326.8,-0.7,1.8,2470.71,13.28,0.049,100.4
2021-09-03T04:43:03,42.805,6.029,0.091,-0.028,0.02,101.0,102.0,101.0,13.4,1505.2,328.4,-0.8,1.8,2470.724,13.28,0.095,107.1
2021-09-03T04:46:03,42.805,6.029,0.058,-0.018,-0.013,102.0,101.0,100.0,13.4,1505.2,328.1,-0.8,1.8,2470.721,13.28,0.06,107.2
2021-09-03T04:49:03,42.805,6.029,0.072,-0.047,0.001,102.0,101.0,101.0,13.4,1505.2,329.6,-0.7,1.8,2470.687,13.28,0.085,123.1
2021-09-03T04:52:03,42.805,6.029,0.055,-0.021,-0.014,101.0,103.0,100.0,13.4,1505.2,325.4,-0.8,1.8,2470.695,13.28,0.058,110.9
2021-09-03T04:55:03,42.805,6.029,0.056,0.0,-0.001,102.0,103.0,101.0,13.3,1505.2,328.3,-0.8,1.8,2470.703,13.28,0.056,90.0
2021-09-03T04:58:03,42.805,6.029,0.057,-0.015,0.002,102.0,102.0,100.0,13.3,1505.2,331.3,-0.7,1.8,2470.71,13.28,0.058,104.7
2021-09-03T05:04:03,42.805,6.029,0.047,0.005,0.011,102.0,102.0,101.0,13.4,1505.2,327.1,-0.8,1.8,2470.741,13.28,0.047,83.9
2021-09-03T05:07:03,42.805,6.029,0.062,-0.015,0.014,101.0,102.0,101.0,13.4,1505.2,328.5,-0.8,1.8,2470.743,13.28,0.063,103.6
2021-09-03T05:10:03,42.805,6.029,0.051,-0.033,-0.017,102.0,101.0,101.0,13.4,1505.2,329.0,-0.8,1.9,2470.75,13.28,0.06,122.9
2021-09-03T05:13:03,42.805,6.029,0.068,-0.026,-0.002,102.0,103.0,100.0,13.3,1505.2,325.5,-0.8,1.8,2470.695,13.28,0.072,110.9
2021-09-03T05:16:03,42.805,6.029,0.08,-0.03,-0.04,102.0,102.0,100.0,13.4,1505.2,325.1,-0.7,1.8,2470.673,13.28,0.085,110.6
2021-09-03T05:19:03,42.805,6.029,0.03,0.005,0.022,102.0,102.0,100.0,13.4,1505.2,326.1,-0.7,1.8,2470.715,13.28,0.03,80.5
2021-09-03T05:22:03,42.805,6.029,0.051,-0.009,0.002,101.0,102.0,102.0,13.3,1505.2,329.4,-0.8,1.8,2470.7,13.28,0.051,100.0
2021-09-03T05:25:03,42.805,6.029,0.043,-0.014,0.004,101.0,102.0,101.0,13.4,1505.2,329.9,-0.7,1.8,2470.734,13.28,0.045,108.0
2021-09-03T05:28:03,42.805,6.029,0.049,-0.026,-0.039,102.0,102.0,100.0,13.4,1505.2,326.9,-0.7,1.8,2470.682,13.28,0.055,117.9
2021-09-03T05:31:03,42.805,6.029,0.053,-0.027,0.001,102.0,103.0,101.0,13.4,1505.2,326.4,-0.8,1.8,2470.697,13.28,0.059,117.0
2021-09-03T05:34:03,42.805,6.029,0.057,-0.01,0.03,102.0,101.0,100.0,13.4,1505.2,328.3,-0.7,1.8,2470.683,13.28,0.057,99.9
2021-09-03T05:37:03,42.805,6.029,0.05,0.001,-0.011,102.0,103.0,99.0,13.4,1505.2,328.2,-0.7,1.8,2470.704,13.28,0.05,88.9
2021-09-03T05:40:03,42.805,6.029,0.047,-0.015,0.039,103.0,101.0,100.0,13.4,1505.2,326.4,-0.8,1.8,2470.675,13.28,0.049,107.7
2021-09-03T05:43:03,42.805,6.029,0.055,-0.021,-0.006,102.0,100.0,101.0,13.4,1505.2,327.1,-0.7,1.8,2470.686,13.28,0.058,110.9
2021-09-03T05:46:03,42.805,6.029,0.066,-0.023,0.006,101.0,102.0,101.0,13.3,1505.2,327.9,-0.7,1.8,2470.71,13.28,0.069,109.2
2021-09-03T05:49:03,42.805,6.029,0.046,-0.01,-0.008,103.0,101.0,100.0,13.3,1505.2,329.8,-0.8,1.8,2470.668,13.28,0.047,102.3
2021-09-03T05:52:03,42.805,6.029,0.076,-0.017,0.009,101.0,102.0,100.0,13.4,1505.2,328.2,-0.8,1.8,2470.701,13.28,0.077,102.6
2021-09-03T05:55:03,42.805,6.029,0.046,-0.044,-0.004,101.0,103.0,101.0,13.4,1505.2,327.5,-0.7,1.8,2470.703,13.28,0.063,133.7
2021-09-03T05:58:03,42.805,6.029,0.042,-0.035,-0.012,102.0,102.0,100.0,13.3,1505.2,329.4,-0.7,1.8,2470.665,13.28,0.054,129.8
2021-09-03T06:04:03,42.805,6.029,0.055,-0.017,0.004,102.0,101.0,101.0,13.4,1505.2,325.6,-0.8,1.8,2470.733,13.28,0.057,107.2
2021-09-03T06:07:03,42.805,6.029,0.043,-0.014,-0.019,99.0,102.0,101.0,13.4,1505.2,327.1,-0.8,1.8,2470.72,13.28,0.045,108.0
2021-09-03T06:10:03,42.805,6.029,0.039,-0.02,-0.023,102.0,100.0,100.0,13.3,1505.2,331.2,-0.8,1.8,2470.73,13.28,0.043,117.1
2021-09-03T06:13:03,42.805,6.029,0.047,-0.011,0.013,102.0,101.0,101.0,13.3,1505.2,328.6,-0.8,1.8,2470.72,13.28,0.048,103.2
2021-09-03T06:16:03,42.805,6.029,0.045,-0.007,0.002,101.0,103.0,100.0,13.4,1505.2,328.1,-0.8,1.8,2470.712,13.28,0.045,98.8
2021-09-03T06:19:03,42.805,6.029,0.051,-0.023,-0.002,103.0,103.0,100.0,13.4,1505.2,330.7,-0.7,1.8,2470.707,13.28,0.055,114.3
2021-09-03T06:22:03,42.805,6.029,0.013,0.003,-0.002,102.0,102.0,100.0,13.4,1505.2,329.4,-0.7,1.8,2470.696,13.28,0.013,77.0
2021-09-03T06:25:03,42.805,6.029,0.052,-0.009,0.002,102.0,102.0,100.0,13.4,1505.2,326.1,-0.8,1.8,2470.69,13.28,0.052,99.8
2021-09-03T06:28:03,42.805,6.029,0.053,-0.023,-0.015,102.0,101.0,100.0,13.4,1505.2,329.6,-0.8,1.8,2470.686,13.28,0.057,113.5
2021-09-03T06:31:03,42.805,6.029,0.051,-0.024,-0.004,103.0,102.0,100.0,13.4,1505.2,330.8,-0.8,1.8,2470.637,13.28,0.056,115.2
2021-09-03T06:34:03,42.805,6.029,0.05,-0.023,-0.008,100.0,104.0,99.0,13.4,1505.2,328.0,-0.7,1.9,2470.677,13.28,0.055,114.7
2021-09-03T06:37:03,42.805,6.029,0.036,-0.011,0.019,102.0,103.0,100.0,13.3,1505.2,329.0,-0.8,1.8,2470.644,13.28,0.037,107.0
2021-09-03T06:40:03,42.805,6.029,0.065,-0.036,-0.005,101.0,101.0,101.0,13.3,1505.2,331.2,-0.8,1.8,2470.7,13.28,0.074,119.0
2021-09-03T06:43:03,42.805,6.029,0.061,-0.037,0.01,100.0,102.0,101.0,13.4,1505.2,328.1,-0.7,1.8,2470.65,13.28,0.071,121.2
2021-09-03T06:46:03,42.805,6.029,0.048,-0.006,0.003,101.0,102.0,101.0,13.4,1505.2,328.3,-0.7,1.8,2470.7,13.28,0.048,97.1
2021-09-03T06:49:03,42.805,6.029,0.052,-0.009,-0.033,102.0,103.0,100.0,13.4,1505.2,329.3,-0.7,1.8,2470.675,13.28,0.052,99.8
2021-09-03T06:52:03,42.805,6.029,0.043,-0.006,0.027,101.0,101.0,102.0,13.4,1505.2,328.1,-0.8,1.8,2470.661,13.28,0.043,97.9
2021-09-03T06:55:03,42.805,6.029,0.048,0.014,0.02,101.0,101.0,101.0,13.4,1505.2,327.8,-0.8,1.8,2470.649,13.28,0.05,73.7
2021-09-03T06:58:03,42.805,6.029,0.064,-0.01,0.008,103.0,102.0,99.0,13.4,1505.2,325.6,-0.8,1.8,2470.669,13.28,0.064,98.9
2021-09-03T07:01:03,42.805,6.029,0.026,-0.003,-0.016,101.0,103.0,100.0,13.3,1505.2,325.4,-0.7,1.8,2470.66,13.28,0.026,96.6
2021-09-03T07:04:03,42.805,6.029,0.065,-0.028,-0.012,100.0,101.0,100.0,13.4,1505.2,325.0,-0.8,1.8,2470.634,13.28,0.07,113.3
2021-09-03T07:07:03,42.805,6.029,0.078,-0.015,-0.006,101.0,102.0,100.0,13.4,1505.2,325.7,-0.8,1.8,2470.676,13.28,0.079,100.9
2021-09-03T07:10:03,42.805,6.029,0.047,-0.03,-0.03,101.0,102.0,101.0,13.4,1505.2,327.4,-0.7,1.8,2470.619,13.28,0.055,122.6
2021-09-03T07:13:03,42.805,6.029,0.047,-0.037,-0.043,102.0,102.0,100.0,13.4,1505.2,329.5,-0.8,1.8,2470.64,13.28,0.059,128.2
2021-09-03T07:16:03,42.805,6.029,0.054,-0.011,-0.014,101.0,102.0,100.0,13.4,1505.2,330.2,-0.7,1.8,2470.674,13.28,0.055,101.5
2021-09-03T07:19:03,42.805,6.029,0.058,-0.033,-0.013,101.0,102.0,100.0,13.4,1505.2,328.3,-0.7,1.8,2470.667,13.28,0.066,119.6
2021-09-03T07:22:03,42.805,6.029,0.066,-0.029,-0.016,101.0,102.0,100.0,13.4,1505.2,327.5,-0.7,1.8,2470.645,13.28,0.072,113.7
2021-09-03T07:25:03,42.805,6.029,0.069,-0.021,0.031,102.0,102.0,99.0,13.4,1505.2,328.7,-0.7,1.8,2470.652,13.28,0.072,106.9
2021-09-03T07:28:03,42.805,6.029,0.051,-0.025,0.02,102.0,101.0,100.0,13.4,1505.2,330.2,-0.8,1.8,2470.661,13.28,0.056,116.1
2021-09-03T07:31:03,42.805,6.029,0.049,-0.012,-0.005,102.0,103.0,100.0,13.4,1505.2,327.4,-0.7,1.8,2470.669,13.28,0.05,103.8
2021-09-03T07:34:03,42.805,6.029,0.052,-0.032,0.003,100.0,103.0,101.0,13.4,1505.2,327.3,-0.8,1.8,2470.685,13.28,0.061,121.6
2021-09-03T07:37:03,42.805,6.029,0.057,-0.013,-0.003,101.0,102.0,100.0,13.4,1505.2,329.4,-0.8,1.8,2470.67,13.28,0.058,102.8
2021-09-03T07:40:03,42.805,6.029,0.043,-0.014,-0.034,101.0,103.0,101.0,13.4,1505.2,330.4,-0.8,1.8,2470.664,13.28,0.045,108.0
2021-09-03T07:43:03,42.805,6.029,0.048,-0.017,-0.021,101.0,102.0,101.0,13.3,1505.2,329.2,-0.8,1.8,2470.651,13.28,0.05,109.5
2021-09-03T07:46:03,42.805,6.029,0.038,-0.004,-0.026,101.0,103.0,100.0,13.4,1505.2,328.5,-0.8,1.8,2470.65,13.28,0.038,96.0
2021-09-03T07:49:03,42.805,6.029,0.03,0.009,-0.011,101.0,102.0,100.0,13.4,1505.2,326.6,-0.7,1.8,2470.635,13.28,0.031,73.3
2021-09-03T07:52:03,42.805,6.029,0.074,-0.022,-0.01,101.0,102.0,100.0,13.4,1505.2,329.9,-0.8,1.8,2470.658,13.28,0.077,106.6
2021-09-03T07:55:03,42.805,6.029,0.054,-0.035,-0.007,100.0,102.0,100.0,13.4,1505.2,330.1,-0.8,1.8,2470.649,13.28,0.064,123.0
2021-09-03T07:58:03,42.805,6.029,0.057,-0.024,-0.001,102.0,102.0,100.0,13.4,1505.2,327.1,-0.8,1.8,2470.633,13.28,0.061,112.8
2021-09-03T08:04:03,42.805,6.029,0.076,-0.014,0.005,101.0,101.0,101.0,13.4,1505.2,327.1,-0.7,1.8,2470.687,13.28,0.077,100.4
2021-09-03T08:07:03,42.805,6.029,0.032,-0.03,-0.045,101.0,101.0,100.0,13.4,1505.2,331.3,-0.8,1.8,2470.72,13.28,0.043,133.1
2021-09-03T08:10:03,42.805,6.029,0.061,-0.013,0.0,101.0,101.0,101.0,13.4,1505.2,328.5,-0.8,1.8,2470.682,13.28,0.062,102.0
2021-09-03T08:13:03,42.805,6.029,0.056,-0.025,-0.005,101.0,101.0,100.0,13.4,1505.2,328.0,-0.7,1.8,2470.657,13.28,0.061,114.1
2021-09-03T08:16:03,42.805,6.029,0.078,-0.01,0.014,100.0,101.0,102.0,13.3,1505.2,328.6,-0.7,1.8,2470.661,13.28,0.078,97.3
2021-09-03T08:19:03,42.805,6.029,0.059,-0.021,0.004,103.0,101.0,100.0,13.4,1505.2,325.5,-0.8,1.8,2470.68,13.28,0.062,109.6
2021-09-03T08:22:03,42.805,6.029,0.057,-0.009,0.013,101.0,101.0,100.0,13.4,1505.2,326.7,-0.7,1.8,2470.632,13.28,0.057,99.0
2021-09-03T08:25:03,42.805,6.029,0.061,-0.005,-0.009,101.0,102.0,101.0,13.4,1505.2,330.6,-0.7,1.8,2470.592,13.28,0.061,94.7
2021-09-03T08:28:03,42.805,6.029,0.08,-0.015,-0.013,102.0,102.0,100.0,13.4,1505.2,325.7,-0.7,1.8,2470.625,13.28,0.081,100.6
2021-09-03T08:31:03,42.805,6.029,0.054,-0.03,-0.014,102.0,101.0,101.0,13.4,1505.2,328.4,-0.7,1.8,2470.668,13.28,0.061,119.1
2021-09-03T08:34:03,42.805,6.029,0.06,-0.004,-0.007,100.0,103.0,101.0,13.4,1505.2,326.7,-0.7,1.8,2470.655,13.28,0.06,93.8
2021-09-03T08:37:03,42.805,6.029,0.047,-0.011,-0.009,103.0,102.0,100.0,13.4,1505.2,328.1,-0.7,1.8,2470.652,13.28,0.048,103.2
2021-09-03T08:40:03,42.805,6.029,0.053,-0.025,-0.003,101.0,102.0,100.0,13.3,1505.2,328.2,-0.8,1.8,2470.591,13.28,0.058,115.3
2021-09-03T08:43:03,42.805,6.029,0.074,-0.025,-0.008,101.0,102.0,100.0,13.3,1505.2,327.1,-0.7,1.8,2470.626,13.28,0.078,108.7
2021-09-03T08:46:03,42.805,6.029,0.061,-0.02,0.012,101.0,101.0,101.0,13.3,1505.2,327.4,-0.8,1.8,2470.627,13.28,0.064,108.1
2021-09-03T08:49:03,42.805,6.029,0.057,-0.016,-0.016,102.0,101.0,100.0,13.4,1505.2,328.0,-0.7,1.9,2470.621,13.28,0.059,105.7
2021-09-03T08:52:03,42.805,6.029,0.057,-0.009,0.003,102.0,102.0,101.0,13.3,1505.2,325.5,-0.7,1.8,2470.641,13.28,0.057,99.0
2021-09-03T08:55:03,42.805,6.029,0.044,-0.002,-0.011,102.0,102.0,101.0,13.3,1505.2,329.3,-0.8,1.8,2470.608,13.28,0.044,92.6
2021-09-03T08:58:03,42.805,6.029,0.059,-0.013,-0.005,101.0,102.0,101.0,13.4,1505.2,329.9,-0.7,1.8,2470.637,13.28,0.06,102.4
2021-09-03T09:04:03,42.805,6.029,0.043,-0.012,0.025,102.0,102.0,101.0,13.3,1505.2,328.4,-0.7,1.8,2470.646,13.28,0.044,105.6
2021-09-03T09:07:03,42.805,6.029,0.053,-0.026,-0.021,102.0,102.0,100.0,13.4,1505.2,329.6,-0.8,1.8,2470.628,13.28,0.059,116.1
2021-09-03T09:10:03,42.805,6.029,0.068,-0.019,-0.002,101.0,102.0,102.0,13.3,1505.2,327.2,-0.8,1.8,2470.635,13.28,0.07,105.6
2021-09-03T09:13:03,42.805,6.029,0.036,-0.025,0.0,101.0,102.0,101.0,13.4,1505.2,325.5,-0.8,1.8,2470.601,13.28,0.043,124.8
2021-09-03T09:16:03,42.805,6.029,0.036,-0.037,-0.036,101.0,101.0,101.0,13.3,1505.2,330.7,-0.7,1.8,2470.618,13.28,0.051,135.8
2021-09-03T09:19:03,42.805,6.029,0.039,-0.015,0.013,102.0,102.0,101.0,13.3,1505.2,328.0,-0.7,1.8,2470.626,13.28,0.041,111.0
2021-09-03T09:22:03,42.805,6.029,0.044,-0.023,0.005,101.0,102.0,100.0,13.3,1505.2,327.2,-0.7,1.8,2470.631,13.28,0.049,117.6
2021-09-03T09:25:03,42.805,6.029,0.056,-0.015,0.017,103.0,100.0,101.0,13.3,1505.2,328.1,-0.8,1.8,2470.601,13.28,0.057,105.0
2021-09-03T09:28:03,42.805,6.029,0.021,-0.026,-0.001,102.0,103.0,100.0,13.4,1505.2,325.6,-0.7,1.8,2470.606,13.28,0.033,141.1
2021-09-03T09:31:03,42.805,6.029,0.041,-0.025,-0.004,102.0,102.0,100.0,13.4,1505.2,330.4,-0.8,1.8,2470.62,13.28,0.048,121.4
2021-09-03T09:34:03,42.805,6.029,0.044,-0.015,0.019,101.0,101.0,101.0,13.4,1505.2,327.2,-0.7,1.8,2470.628,13.28,0.046,108.8
2021-09-03T09:37:03,42.805,6.029,0.054,-0.011,0.017,103.0,101.0,100.0,13.4,1505.2,327.1,-0.8,1.8,2470.592,13.28,0.055,101.5
2021-09-03T09:40:03,42.805,6.029,0.034,-0.023,-0.02,101.0,102.0,101.0,13.4,1505.2,328.3,-0.8,1.9,2470.605,13.28,0.041,124.1
2021-09-03T09:43:02,42.805,6.029,0.052,0.0,0.002,102.0,103.0,100.0,13.4,1505.2,326.0,-0.8,1.8,2470.627,13.28,0.052,90.0
2021-09-03T09:46:03,42.805,6.029,0.027,-0.012,-0.036,102.0,101.0,101.0,13.3,1505.2,326.3,-0.8,1.8,2470.586,13.28,0.029,114.0
2021-09-03T09:49:02,42.805,6.029,0.045,-0.008,-0.013,102.0,102.0,99.0,13.3,1505.2,328.1,-0.8,1.8,2470.623,13.28,0.045,100.1
2021-09-03T09:52:02,42.805,6.029,0.065,-0.019,0.02,102.0,102.0,101.0,13.4,1505.2,329.3,-0.8,1.8,2470.633,13.28,0.067,106.3
2021-09-03T09:55:02,42.805,6.029,0.036,0.0,-0.031,101.0,102.0,101.0,13.4,1505.2,325.1,-0.8,1.8,2470.593,13.28,0.036,90.0